Weather History for PAHO - May, 2012

Change the Weather History Date:

Saturday, May 12, 2012

  Actual Average Record
Temperature  
Mean Temperature 36 °F -  
Max Temperature 46 °F 49 °F 65 °F (1942)
Min Temperature 30 °F 35 °F 26 °F (1964)
Degree Days  
Heating Degree Days 28    
Moisture  
Dew Point 31 °F    
Average Humidity 82    
Maximum Humidity 96    
Minimum Humidity 60    
Precipitation  
Precipitation 0.02 in - - ()
Sea Level Pressure  
Sea Level Pressure 29.59 in    
Wind  
Wind Speed 4 mph (ESE)    
Max Wind Speed 13 mph    
Max Gust Speed 22 mph    
Visibility 10 miles    
Events Rain , Snow    
Averages and records for this station are not official NWS values.
T = Trace of Precipitation, MM = Missing Value Source: NWS Daily Summary

Daily Weather History Graph

Daily Weather History Graph

Search for Another Location

Airport or City:

Trip Planner

Search our weather history database for the weather conditions in past years. The results will help you decide how hot, cold, wet, or windy it might be!

Date:

Astronomy

May. 12, 2012 Rise Set
Actual Time 5:35 AM AKDT 10:30 PM AKDT
Civil Twilight 4:36 AM AKDT 11:30 PM AKDT
Nautical Twilight 2:17 AM AKDT 1:29 AM AKDT
Astronomical Twilight Sun does not set Sun does not set
Moon 3:13 AM AKDT (5/12) 1:07 PM AKDT (5/12)
Length of Visible Light 18h 54m
Length of Day
16h 54m
Waning Gibbous, 51% of the Moon is Illuminated
May 12
Waning Gibbous
May 12
Last Quarter
May 20
New
May 28
First Quarter
Jun 4
Full

Hourly Weather History & Observations

Time (AKDT) Temp. Windchill Dew Point Humidity Pressure Visibility Wind Dir Wind Speed Gust Speed Precip Events Conditions
12:53 AM 32.0 °F 27.5 °F 30.0 °F 92% 29.57 in 10.0 mi NNE 4.6 mph - N/A   Partly Cloudy
1:53 AM 32.0 °F - 28.9 °F 88% 29.57 in 10.0 mi Calm Calm - N/A   Clear
2:53 AM 30.0 °F 26.5 °F 28.9 °F 96% 29.56 in 10.0 mi NNE 3.5 mph - N/A   Overcast
3:53 AM 32.0 °F - 30.0 °F 92% 29.55 in 10.0 mi Calm Calm - N/A   Overcast
4:53 AM 34.0 °F - 30.0 °F 85% 29.55 in 10.0 mi Calm Calm - N/A   Overcast
5:53 AM 33.1 °F - 30.0 °F 89% 29.54 in 10.0 mi Calm Calm - N/A   Overcast
6:53 AM 32.0 °F - 30.0 °F 92% 29.53 in 10.0 mi Calm Calm - N/A   Overcast
7:53 AM 35.1 °F - 32.0 °F 89% 29.53 in 10.0 mi Calm Calm - N/A   Overcast
8:53 AM 37.0 °F - 30.0 °F 76% 29.53 in 10.0 mi Calm Calm - N/A   Overcast
9:53 AM 39.9 °F - 30.9 °F 70% 29.52 in 10.0 mi Calm Calm - N/A   Overcast
10:53 AM 39.0 °F 35.7 °F 32.0 °F 76% 29.52 in 10.0 mi South 4.6 mph - N/A   Overcast
11:53 AM 39.9 °F 35.1 °F 30.9 °F 70% 29.52 in 10.0 mi SSW 6.9 mph - N/A   Overcast
12:53 PM 39.9 °F 35.1 °F 30.9 °F 70% 29.53 in 10.0 mi SW 6.9 mph - N/A   Overcast
1:53 PM 39.9 °F 35.1 °F 32.0 °F 73% 29.55 in 10.0 mi WSW 6.9 mph - N/A   Overcast
2:53 PM 41.0 °F 39.0 °F 30.0 °F 65% 29.56 in 10.0 mi North 3.5 mph - 0.00 in Rain Light Rain
3:53 PM 41.0 °F 39.0 °F 30.0 °F 65% 29.56 in 10.0 mi WSW 3.5 mph - 0.00 in   Mostly Cloudy
4:53 PM 43.0 °F 36.8 °F 30.0 °F 60% 29.57 in 10.0 mi SE 11.5 mph 17.3 mph N/A   Mostly Cloudy
5:53 PM 42.1 °F 35.7 °F 28.9 °F 60% 29.58 in 10.0 mi SSE 11.5 mph 16.1 mph N/A   Mostly Cloudy
6:53 PM 39.9 °F 32.5 °F 32.0 °F 73% 29.60 in 10.0 mi South 12.7 mph 21.9 mph N/A   Mostly Cloudy
7:38 PM 35.6 °F 29.2 °F 33.8 °F 93% 29.63 in 10.0 mi SSE 8.1 mph - 0.00 in Rain Light Rain
7:53 PM 35.1 °F 27.9 °F 33.1 °F 92% 29.64 in 10.0 mi SE 9.2 mph 18.4 mph 0.02 in Rain , Snow Light Snow
8:00 PM 35.6 °F 29.2 °F 33.8 °F 93% 29.63 in 9.0 mi ESE 8.1 mph - 0.00 in Rain , Snow Light Snow
8:21 PM 35.6 °F 29.9 °F 33.8 °F 93% 29.64 in 10.0 mi ESE 6.9 mph - 0.00 in   Mostly Cloudy
8:53 PM 37.0 °F 34.5 °F 33.1 °F 86% 29.65 in 10.0 mi Variable 3.5 mph - 0.00 in   Mostly Cloudy
9:53 PM 37.0 °F 30.4 °F 33.1 °F 86% 29.68 in 10.0 mi East 9.2 mph - N/A   Mostly Cloudy
10:01 PM 35.6 °F 29.2 °F 33.8 °F 93% 29.67 in 10.0 mi ENE 8.1 mph - N/A   Mostly Cloudy
10:13 PM 35.6 °F 29.2 °F 32.0 °F 87% 29.68 in 10.0 mi ENE 8.1 mph - N/A   Scattered Clouds
10:53 PM 35.1 °F 28.6 °F 32.0 °F 89% 29.69 in 10.0 mi ENE 8.1 mph - 0.00 in   Scattered Clouds
11:53 PM 35.1 °F 27.9 °F 30.9 °F 85% 29.71 in 10.0 mi East 9.2 mph - N/A   Scattered Clouds